Tracking 19634 objects as of 23-May-2019
HD Live streaming from Space Station
objects crossing your sky now

RADUGA 1-4

Track RADUGA 1-4 now!
RADUGA 1-4 is classified as:


NORAD ID: 25642
Int'l Code: 1999-010A
Perigee: 35,797.1 km
Apogee: 35,834.6 km
Inclination: 14.7 °
Period: 1,437.2 minutes
Semi major axis: 42186 km
RCS: 12.5893 m2 (large)
Launch date: February 28, 1999
Source: Commonwealth of Independent States (former USSR) (CIS)
Launch site: TYURATAM MISSILE AND SPACE COMPLEX (TTMTR)

Military communication.
aabbcc
Your satellite tracking list
Your tracking list is empty




NASA's NSSDC Master Catalog

Two Line Element Set (TLE):
1 25642U 99010A   19141.69089909 -.00000199  00000-0  00000+0 0  9993
2 25642  14.6627  23.9885 0004445 276.9110 272.1510  1.00193107 74062
Source of the keplerian elements: AFSPC